{"data":{"norad_id":53466,"epoch":"2026-05-25T06:00:02.000160Z","epoch_age_seconds":49528,"freshness":"FRESH","line1":"1 53466U 22099B   26145.25002315  .00469900  00000+0  10766-1 0  9990","line2":"2 53466  97.6047 267.2153 0001273  80.8131  63.1375 15.40899288  5687","mean_motion":15.40899288,"eccentricity":0.0001273,"inclination_deg":97.6047,"raan_deg":267.2153,"arg_perigee_deg":80.8131,"mean_anomaly_deg":63.1375,"bstar":0.010766,"rev_number":568,"period_min":93.451921953254,"perigee_km":442.58552774356,"apogee_km":444.32230479084,"semimajor_km":6821.5909162672,"source":"CELESTRAK","updated_at":"2026-05-25T13:38:17.408197Z"}}